sat.trackr.live / text

‹ back to catalog

SDA_1669

NORAD 65979 · 2025-230F

PAYLOAD ACTIVE UNKNOWN

§ Identity

Operator
Country
US
Launch date
2025-10-15
Launch site
AFWTR
Launch vehicle
Mass (kg)
RCS (m²)

External: N2YO · Heavens-Above · Gunter

§ Orbital elements

Epoch: 2026-05-25T04:04:03.345888Z

Period
103.96 min
Inclination
81.3051°
Eccentricity
0.0002080
Mean motion
13.85199677 rev/d
Perigee alt
944.0 km
Apogee alt
947.0 km
Semi-major
7,323.6 km
B*
-5.1450e-3
RAAN
232.9222°
Arg perigee
249.3169°
Mean anomaly
110.7765°
Rev number
3,063

§ Raw data

SDA_16691 65979U 25230F   26145.16948317 -.00005816  00000+0 -51450-2 0  99932 65979  81.3051 232.9222 0002080 249.3169 110.7765 13.85199677 30637

JSON: /api/v1/satellites/65979 · /tle

For live sub-satellite position, see the globe view (requires WebGL).

§ Visibility from observer

Set your observer location to see the next 7 days of passes ≥ 10°. The values pass through the URL so the page stays shareable.

No JS? Fill the form by hand. The geolocation button needs JavaScript.